Location: Newark
(39.6172°N, 96.8533°W)
Time: 20:13:10
(UTC+00:00)

Envisat - Pass Details

Date: 01 February 2020
Orbit: 764 x 766 km, 98.1° (Epoch: 25 February)

Event Time Altitude Azimuth Distance (km) Brightness Sun altitude
Rises 01:24:21 0° 204° (SSW) 3,218 6.7 -19.2°
Reaches altitude 10° 01:27:14 10° 221° (SW) 2,297 6.1 -19.7°
Maximum altitude 01:30:53 20° 267° (W) 1,723 5.8 -20.4°
Drops below altitude 10° 01:34:34 10° 314° (NW) 2,309 6.0 -21.1°
Sets 01:37:30 0° 331° (NNW) 3,240 6.6 -21.7°
